Regional Weather Roundup
Issued by NWS

Home | Current Version | Previous Version | Graphics & Text | Print | Product List | Glossary Off
Versions: 1 2 3 4 5 6 7 8 9 10 11 12 13 14 15 16 17 18 19 20 21 22 23 24 25 26 27 28 29 30 31 32 33 34 35 36 37 38 39 40 41 42 43 44 45 46 47 48 49 50

000
ASUS43 KDMX 040904
RWRIA

WEATHER ROUNDUP FOR IOWA
NATIONAL WEATHER SERVICE DES MOINES IA
  ISSUED BY NWS QUAD CITIES IA IL
300 AM CST WED MAR 04 2015

NOTE: "FAIR" INDICATES FEW OR NO CLOUDS BELOW 12,000 FEET WITH NO
SIGNIFICANT WEATHER AND/OR OBSTRUCTIONS TO VISIBILITY.

* - THESE STATIONS ARE NOT NWS STATIONS...THUS NOT UNDER NWS
QUALITY CONTROL.  THEY ALSO DO NOT REPORT WEATHER SUCH
AS PRECIPITATION OR FOG.

IAZ001>003-012>014-020>022-031>034-043>046-041000-
   NORTHWEST IOWA

CITY           SKY/WX    TMP DP  RH WIND       PRES   REMARKS
CARROLL *      CLOUDY    12   3  67 NW15      30.16R WCI  -4
CHEROKEE *     PTSUNNY   11   2  66 NW8       30.16F WCI   0
DENNISON *     CLOUDY    12   3  67 NW9       30.15F WCI   0
LE MARS *      MOCLDY     9   5  85 W3        30.19S
ORANGE CITY *  PTCLDY     7   0  72 CALM      30.15F
SHELDON *      PTCLDY     5  -2  72 NW7       30.14S WCI  -7
SIOUX CITY     MOCLDY    16   6  65 N8        30.19S WCI   5
SPENCER        PTCLDY     7  -3  64 NW9       30.14F WCI  -7
STORM LAKE *   MOCLDY    10   1  67 NW14      30.14S WCI  -5
$$

IAZ055>058-069>071-079>083-090>094-041000-
   SOUTHWEST IOWA

CITY           SKY/WX    TMP DP  RH WIND       PRES   REMARKS
ATLANTIC *     CLOUDY    16   3  57 N12G17    30.17S WCI   3
AUDUBON *      MOCLDY    14   3  62 NW9       30.15F WCI   2
CLARINDA *     LGT SNOW  16  10  79 N16G23    30.20F WCI   0
COUNCIL BLFS * LGT SNOW  16  12  86 NW6       30.17S WCI   7
CRESTON *      LGT SNOW  14   7  73 N17G25    30.15S WCI  -3
HARLAN *       CLOUDY    14   7  73 N9        30.20S WCI   2
LAMONI         MOCLDY    15   5  64 N14G23    30.13S WCI   0
RED OAK *      LGT SNOW  16  12  86 N12       30.19S WCI   3
SHENANDOAH *   LGT SNOW  16  14  93 N10       30.20F WCI   3
$$

IAZ047>049-059>061-072>074-084-041000-
   CENTRAL IOWA

CITY           SKY/WX    TMP DP  RH WIND       PRES   REMARKS
AMES           CLOUDY    13   2  61 NW21G29   30.15R WCI  -5
ANKENY *       MOCLDY    14   1  57 NW10G20   30.17R WCI   1
BOONE *        CLOUDY    12   1  62 NW16G24   30.12R WCI  -4
CHARITON *     CLOUDY    14   7  73 NW12      30.16R WCI   0
DES MOINES     CLOUDY    16   3  56 NW13      30.16R WCI   2
GRINNELL *     CLOUDY    11   4  73 NW15      30.13R WCI  -5
KNOXVILLE *    CLOUDY    14   3  62 NW15      30.13R WCI  -1
MARSHALLTOWN   CLOUDY    11   1  64 NW18      30.11R WCI  -7
NEWTON *       CLOUDY    12   3  67 NW16G22   30.15R WCI  -4
PELLA *        PTCLDY    14   8  76 NW13      30.16R WCI   0
PERRY *          N/A     15   4  63 N21       30.17R WCI  -3
$$

IAZ004>006-015-016-023>025-035-036-041000-
   NORTH CENTRAL IOWA

CITY           SKY/WX    TMP DP  RH WIND       PRES   REMARKS
ALGONA *       PTCLDY     9 N/A N/A NW17G25   30.13S WCI -10
CLARION *      PTCLDY     9   0  66 NW30      30.12R WCI -14
ESTHERVILLE    PTCLDY     5  -4  66 NW12      30.12F WCI -11
FORT DODGE *   CLOUDY    10  -2  56 NW14G21   30.15R WCI  -5
MASON CITY     CLEAR      6  -2  69 NW21      30.09S WCI -14
WEBSTER CITY * CLOUDY    10   3  72 NW24G30   30.12R WCI -10
IOWA FALLS *   CLOUDY    10   2  69 NW21      30.11R WCI  -9
$$

IAZ007>011-017>019-026>030-037>042-050>054-066-041000-
   NORTHEAST IOWA

CITY           SKY/WX    TMP DP  RH WIND       PRES   REMARKS
CEDAR RAPIDS   PTCLDY     8   2  76 NW12      30.07  WCI  -7
CHARLES CITY * CLOUDY     9   0  66 NW24      30.06S WCI -12
CLINTON *      CLEAR     10   3  72 NW13      30.05R WCI  -5
DECORAH *      MOCLDY     7  -2  66 NW14G23   30.01F WCI -10
DUBUQUE          N/A    N/A N/A N/A MISG      30.00R
MONTICELLO *   PTCLDY     9   1  72 NW10      30.04S WCI  -6
OELWEIN *      CLOUDY     9   0  66 NW24G33   30.05R WCI -12
WATERLOO       CLOUDY    10   1  67 NW23G32   30.08R WCI -10
$$

IAZ064-065-067-068-078-041000-
   EAST CENTRAL IOWA

CITY           SKY/WX    TMP DP  RH WIND       PRES   REMARKS
DAVENPORT      PTCLDY    11   2  67 NW17      30.05R WCI  -6
IOWA CITY      CLEAR     11   3  70 NW14      30.11R WCI  -5
MT. PLEASANT * PTCLDY    13   5  70 NW15G23   30.11R WCI  -3
MUSCATINE *    PTCLDY    14   5  67 NW13G20   30.10R WCI   0
QUAD CITIES    PTCLDY    13   4  67 NW20      30.06R WCI  -5
$$

IAZ062-063-075>077-085>089-095>099-041000-
   SOUTHEAST IOWA

CITY           SKY/WX    TMP DP  RH WIND       PRES   REMARKS
BURLINGTON     PTCLDY    14   6  70 NW15G25   30.09R WCI  -1
FAIRFIELD *    PTCLDY    12   3  67 NW17G26   30.13R WCI  -5
FORT MADISON * PTCLDY    14   7  73 NW14      30.11R WCI  -1
KEOKUK *       PTCLDY    16   9  73 NW17G23   30.10R WCI   0
OSKALOOSA *    FAIR      12   5  73 NW17      30.15R WCI  -5
CENTERVILLE *  PTSUNNY   16  10  79 NW15      30.15R WCI   1
OTTUMWA        CLEAR     13   4  67 NW17G24   30.14R WCI  -4
WASHINGTON *   CLEAR     12   9  85 NW16G24   30.12R WCI  -4
$$

ABBREVIATIONS USED IN REMARKS
   TC - TEMPERATURES IN CELSIUS
  WCI - WIND CHILL INDEX
   HX - HEAT INDEX
  VSB - VISIBILITY
$$



USA.gov is the U.S. government's official web portal to all federal, state and local government web resources and services.